STARLINK-34283, 64214

Orbit data source: Space-Track

STARLINK-34283, 64214 is a payload satellite owned by SpaceX/Seattle (US) in LEO that was launched on Sat, 31 May 2025 UTC via an FALCON 9 launch vehicle from the Air Force Western Test Range (AFWTR). Payload-class satellites include a variety of spacecraft equipped with specific instruments for various scientific and technological missions. These include communications satellites like Starlink; space stations such as the ISS; scientific satellites like the Hubble; Earth observation satellites from companies like Planet Labs, Umbra, and HawkEye 360; GPS; miniature CubeSats for education and research; and military/defense satellites.

Loading next visibility...
Identifier
64214, 2025-117M
Orbit
LEO
Country
Flag of USUS
Related business
Manufacturer
SpaceX/Seattle
Mission
Operational Commercial Communications
Bus & Motor
STARLINK V2MO, Unknown motor
Mass
575 kg wet, ~530 kg dry
Launch date (UTC)
2025-05-31 (1 year ago)
Launch vehicle
FALCON 9
Launch site
Air Force Western Test Range (AFWTR)
Object type
Payload
Rocket body
Debris
Shape & HBR
Box + 2 Pan, 17.7 m
Radar Cross Section
36.964 m², Large (>1 m²)

Expand to show TLE details & history
Last TLE update: 1 day ago

TLE from 1 day ago
0 STARLINK-34283
1 64214U 25117M   26170.58696867  .00027992  00000-0  83638-3 0  9994
2 64214  53.1609 284.3926 0000765  61.8005 298.3075 15.34404820 60152
Epoch: 2026-06-19T14:05Z
TLE epoch observation values (Epoch: 2026-06-19T14:05:14.093Z)
Latitude
0.00002°
Longitude
165.27008°
Altitude
463.342 km
Speed
7.636 km/s
True Right ascension
18h 57m 34s
True Declination
0° 00' 00"
Sunlit
Object was in full shadow at epoch
Visualization orbit readout
Latitude
Unknown
Longitude
Unknown
Altitude
Unknown
Speed
Unknown
Apparent Right ascension
Unknown
Apparent Declination
Unknown
Sunlit
N/A
Visualization observer readout
Local Sidereal Time
07:22:43
Azimuth
Unknown
Elevation
Unknown
Doppler factor
Unknown
Orbital elements
Apogee altitude
463.469 km
Perigee altitude
462.422 km
Semi-major axis
6,841.083 km
Eccentricity
0.00008
Inclination
53.1609°
RAAN
284.3926°
Arg. of periapsis
61.8005°
True anomaly
298.29978°
Mean anomaly
298.3075°
Eccentric anomaly
298.30364°
Mean motion
3.8358 °/min
Orbital period
93.85 mins
BSTAR
0.00083638
Loading maneuver chart data...
Computing Atmospheric mass density...
Loading historical data...
Loading historical data...
Loading historical data...
Loading historical data...
Loading historical data...
Loading historical data...
Loading historical data...

Documentation

Showing up to 5 results
|